Location: ???????
(55.4362°N, 38.1183°E)
Time: 03:02:51
(UTC+00:00)

FALCON 9 DEB - Pass Details

Date: 17 June 2021
Orbit: 359 x 373 km, 53.0° (Epoch: 26 July)

Event Time Altitude Azimuth Distance (km) Brightness Sun altitude
Rises 20:38:10 0° 231° (SW) 2,251 6.5 -10.4°
Reaches altitude 10° 20:40:20 10° 220° (SW) 1,400 5.3 -10.5°
Maximum altitude 20:43:08 30° 157° (SSE) 717 3.7 -10.6°
Drops below altitude 10° 20:46:01 10° 93° (E) 1,435 5.6 -10.6°
Sets 20:48:06 0° 83° (E) 2,253 6.7 -10.7°
